{"data":{"norad_id":56105,"epoch":"2026-05-25T03:46:03.884160Z","epoch_age_seconds":61655,"freshness":"FRESH","line1":"1 56105U 23046N   26145.15698940  .00009752  00000+0  36344-3 0  9997","line2":"2 56105  42.9953  89.9275 0002316 258.6477 101.4115 15.27579395173728","mean_motion":15.27579395,"eccentricity":0.0002316,"inclination_deg":42.9953,"raan_deg":89.9275,"arg_perigee_deg":258.6477,"mean_anomaly_deg":101.4115,"bstar":0.00036344,"rev_number":17372,"period_min":94.266786048132,"perigee_km":481.46185650849,"apogee_km":484.63995874731,"semimajor_km":6861.1879076279,"source":"CELESTRAK","updated_at":"2026-05-25T13:38:17.955393Z"}}